Location: Unspecified
(41.1637°N, 24.2901°E)
Time: 12:31:41
(UTC+01:00)

ISS - Visible Passes

Search period start: 05 December 2025 00:00
Search period end: 15 December 2025 00:00
Orbit: 416 x 421 km, 51.6° (Epoch: 04 December)

Date Brightness Start Highest point End Pass type
(mag) Time Alt. Az. Time Alt. Az. Time Alt. Az.
05 Dec 0.0 16:55:52 10° WSW 16:56:36 11° SW 16:57:20 10° SW visible
11 Dec -0.6 05:38:27 10° S 05:40:42 17° SE 05:42:57 10° E visible
13 Dec -2.7 05:38:00 10° SW 05:41:16 48° SE 05:44:31 10° ENE visible
14 Dec -1.7 04:50:26 10° SSW 04:53:21 27° SE 04:56:16 10° ENE visible
